Location: Archemont
(49.1579°N, 1.7598°E)
Time: 18:10:45
(UTC+00:00)

Vanguard 3 - All Passes

Search period start: 23 April 2024 00:00
Search period end: 03 May 2024 00:00
Orbit: 510 x 3235 km, 33.3° (Epoch: 23 April)

Date Brightness Start Highest point End Pass type
(mag) Time Alt. Az. Time Alt. Az. Time Alt. Az.
23 Apr - 01:31:05 10° SSW 01:42:25 22° SSE 01:51:01 10° ESE visible
23 Apr - 03:42:39 10° SW 03:54:58 32° S 04:02:59 10° ESE visible
23 Apr - 05:57:17 10° WSW 06:06:33 28° SSW 06:12:34 10° SE daylight
23 Apr - 08:14:19 10° SW 08:16:33 11° SW 08:18:31 10° SSW daylight
24 Apr - 00:14:50 10° S 00:23:52 16° SE 00:31:31 10° ESE visible
24 Apr - 02:23:20 10° SW 02:36:39 29° SSE 02:45:53 10° ESE visible
24 Apr - 04:37:05 10° WSW 04:49:00 33° S 04:56:30 10° SE daylight
24 Apr - 06:52:40 10° WSW 06:59:54 21° SSW 07:04:58 10° SSE daylight
25 Apr - 01:04:58 10° SSW 01:18:01 25° SSE 01:27:58 10° ESE visible
25 Apr - 03:17:02 10° SW 03:30:52 35° S 03:39:53 10° ESE visible
25 Apr - 05:32:05 10° WSW 05:42:44 30° SSW 05:49:33 10° SE daylight
25 Apr - 07:49:18 10° WSW 07:52:51 13° SW 07:55:48 10° SSW daylight
25 Apr - 23:48:16 10° S 23:59:16 19° SE 00:08:37 10° ESE visible
26 Apr - 01:57:31 10° SW 02:12:17 33° SSE 02:22:40 10° ESE visible
26 Apr - 04:11:36 10° WSW 04:24:56 36° S 04:33:22 10° ESE daylight
26 Apr - 06:27:35 10° WSW 06:36:05 23° SSW 06:41:55 10° SSE daylight
26 Apr - 22:35:41 10° SSE 22:40:40 11° SE 22:45:25 10° ESE visible
27 Apr - 00:39:00 10° SSW 00:53:23 28° SSE 01:04:36 10° ESE visible
27 Apr - 02:51:22 10° SW 03:06:32 38° S 03:16:37 10° ESE visible
27 Apr - 05:06:42 10° WSW 05:18:43 33° SSW 05:26:23 10° SE daylight
27 Apr - 07:24:12 10° WSW 07:28:59 14° SW 07:32:49 10° SSW daylight
27 Apr - 23:22:03 10° S 23:34:28 21° SE 23:45:15 10° ESE visible
28 Apr - 01:31:46 10° SW 01:47:40 36° SSE 01:59:11 10° ESE visible
28 Apr - 03:46:01 10° WSW 04:00:40 39° S 04:10:04 10° ESE visible
28 Apr - 06:02:18 10° WSW 06:12:05 25° SSW 06:18:42 10° SSE daylight
28 Apr - 22:08:13 10° SSE 22:15:47 14° SE 22:23:01 10° ESE visible
29 Apr - 00:13:11 10° SSW 00:28:33 31° SSE 00:40:58 10° ESE visible
29 Apr - 02:25:42 10° WSW 02:42:00 41° S 02:53:08 10° ESE visible
29 Apr - 04:41:11 10° WSW 04:54:30 35° SSW 05:03:03 10° SE daylight
29 Apr - 06:58:59 10° WSW 07:04:57 15° SW 07:09:37 10° S daylight
29 Apr - 22:56:07 10° S 23:09:30 23° SE 23:21:30 10° ESE visible
30 Apr - 01:06:05 10° SW 01:22:51 38° SSE 01:35:30 10° ESE visible
30 Apr - 03:20:24 10° WSW 03:36:11 41° S 03:46:36 10° ESE visible
30 Apr - 05:36:52 10° W 05:47:53 27° SSW 05:55:20 10° SSE daylight
30 Apr - 21:41:41 10° SSE 21:50:45 15° SE 21:59:36 10° ESE visible
30 Apr - 23:47:32 10° SSW 00:03:32 33° SSE 00:17:04 10° E visible
01 May - 02:00:04 10° WSW 02:17:13 43° S 02:29:27 10° ESE visible
01 May - 04:15:35 10° WSW 04:30:03 36° SSW 04:39:33 10° SE daylight
01 May - 06:33:37 10° WSW 06:40:43 17° SW 06:46:12 10° S daylight
01 May - 22:30:26 10° S 22:44:20 25° SE 22:57:25 10° E visible
02 May - 00:40:31 10° SW 00:57:50 41° SSE 01:11:35 10° ESE visible
02 May - 02:54:45 10° WSW 03:11:28 43° S 03:22:56 10° ESE visible
02 May - 05:11:19 10° W 05:23:27 28° SSW 05:31:47 10° SSE daylight
02 May - 21:15:41 10° SSE 21:25:35 17° SE 21:35:35 10° ESE visible
02 May - 23:22:03 10° SSW 23:38:19 35° SSE 23:52:53 10° E visible
